SCP
0 0 0 0 0 0 0 0 0 0 0 0 0 0 0 0 0 0 0 0 0 0 0 0 0 0 0 0 0 0 0 0 0 0 0 0 0 0 0 0 0 0 0
0 0 0 0 0 0 0 0 0 0 0 0 0 0 0 0 0 0 0 0 0 0 0 0 0 0 0 0 0 0 0 0 0 0 0 0 0 0 0 0 0 0 0
0 0 0 0 0 0 0 0 0 0 0 0 0 0 0 0 0 0 0 0 0 0 0 0 0 0 0 0 0 0 0 0 0 0 0 0 0 0 0 0 0 0 0
0 0 0 0 0 0 0 0 0 0 0 0 0 0 0 0 0 0 0 0 0 0 0 0 0 0 0 0 0 0 0 0 0 0 0 0 0 0 0 0 0 0 0
0 0 0 0 0 0 0 0 0 0 0 0 0 0 0 0 0 0 0 0 0 0 0 0 0 0 0 0 0 0 0 0 0 0 0 0 0 0 0 0 0 0 0
0 0 0 0 0 0 0 0 0 0 0 0 0 0 0 0 0 0 0 0 0 0 0 0 0 0 0 0 0 0 0 0 0 0 0 0 0 0 0 0 0 0 0
0 0 0 0 0 0 0 0 0 0 0 0 0 0 0 0 0 0 0 0 0 0 0 0 0 0 0 0 0 0 0 0 0 0 0 0 0 0 0 0 0 0 0
0 0 0 0 0 0 0 0 0 0 0 0 0 0 0 0 0 0 0 0 0 0 0 0 0 0 0 0 0 0 0 0 0 0 0 0 0 0 0 0 0 0 0
0 0 0 0 0 0 0 0 0 0 0 0 0 0 0 0 0 0 0 0 0 0 0 0 0 0 0 0 0 0 0 0 0 0 0 0 0 0 0 0 0 0 0
0 0 0 0 0 0 0 0 0 0 0 0 0 0 0 0 0 0 0 0 0 0 0 0 0 0 0 0 0 0 0 0 0 0 0 0 0 0 0 0 0 0 0
1 0 0 0 0 0 0 0 0 0 0 0 0 0 0 0 0 0 0 0 0 0 0 0 0 0 0 0 0 0 0 0 0 0 0 0 0 0 0 0 0 0 0
1 0 0 0 0 0 0 0 0 0 0 0 0 0 0 0 0 0 0 0 0 0 0 0 0 0 0 0 0 0 0 0 0 0 0 0 0 0 0 0 0 0 0
0 0 0 0 0 0 0 0 0 0 0 0 0 0 0 0 0 0 0 0 0 0 0 0 0 0 0 0 0 0 0 0 0 0 0 0 0 0 0 0 0 0 0
0 0 0 0 0 0 0 0 0 0 0 0 0 0 0 0 0 0 0 0 0 0 0 0 0 0 0 0 0 0 0 0 0 0 0 0 0 0 0 0 0 0 0
0 0 0 0 0 0 0 0 0 0 0 0 0 0 0 0 0 0 0 0 0 0 0 0 0 0 0 0 0 0 0 0 0 0 0 0 0 0 0 0 0 0 0
0 0 0 0 0 0 0 0 0 0 0 0 0 0 0 0 0 0 0 0 0 0 0 0 0 0 0 0 0 0 0 0 0 0 0 0 0 0 0 0 0 0 0
0 0 0 0 0 0 0 0 0 0 0 0 0 0 0 0 0 0 0 0 0 0 0 0 0 0 0 0 0 0 0 0 0 0 0 0 0 0 0 0 0 0 0
0 0 0 0 0 0 0 0 0 0 0 0 0 0 0 0 0 0 0 0 0 0 0 0 0 0 0 0 0 0 0 0 0 0 0 0 0 0 0 0 0 0 0
1 1 0 0 0 0 0 0 0 0 0 0 0 0 0 0 0 0 0 0 0 0 0 0 0 0 0 0 0 0 0 0 0 0 0 0 0 0 0 0 0 0 0
1 1 1 0 0 0 0 0 0 0 0 0 0 0 0 0 0 0 0 0 0 0 0 0 0 0 0 0 0 0 0 0 0 0 0 0 0 0 0 0 0 0 0
1 1 1 1 1 1 1 1 0 0 0 0 0 0 0 0 0 0 0 0 0 0 0 0 0 0 0 0 0 0 0 0 0 0 0 0 0 0 0 0 0 0 0
1 1 1 1 1 1 1 1 1 0 0 0 0 0 0 0 0 0 0 0 0 0 0 0 0 0 0 0 0 0 0 0 0 0 0 0 0 0 0 0 0 0 0
1 1 1 1 1 1 1 1 1 1 0 0 0 0 0 0 0 0 0 0 0 0 0 0 0 0 0 0 0 0 0 0 0 0 0 0 0 0 0 0 0 0 0
1 1 1 1 1 1 1 1 1 1 1 1 0 0 0 0 0 0 0 0 0 0 0 0 0 0 0 0 0 0 0 0 0 0 0 0 0 0 0 0 0 0 0
1 1 1 1 1 1 1 1 1 1 1 1 1 1 1 1 0 0 0 0 0 0 0 0 0 0 0 0 0 0 0 0 0 0 0 0 0 0 0 0 0 0 0
1 1 1 1 1 1 1 1 1 1 1 1 1 1 1 1 0 0 0 0 0 0 0 0 0 0 0 0 0 0 0 1 0 0 0 0 0 0 0 0 0 0 0
Wind_Speed
8 11 13 10 9 9 9 9 10 10 10 9 10 9 9 8 7 7 8 9 9 9 9 9 10 10 10 10 9 8 8 7 7 8 9 9 10 10 10 11 10 9 10
10 13 13 10 9 9 9 9 9 10 9 9 9 9 8 8 7 8 9 9 9 9 9 8 9 10 10 9 9 8 7 6 6 6 7 9 9 9 10 9 6 7 10
11 13 13 10 9 9 9 9 9 9 9 9 9 8 8 8 8 8 9 9 9 9 8 8 8 9 9 8 8 7 6 6 5 5 6 6 9 9 9 9 8 9 9
11 12 11 12 9 9 9 9 9 9 9 9 8 8 8 8 8 8 9 9 9 8 8 8 8 8 8 8 7 7 6 5 5 6 5 4 6 10 9 9 8 9 9
11 11 12 11 9 9 9 9 9 9 9 8 8 8 8 8 8 8 8 8 8 8 8 7 8 7 7 7 7 6 6 5 5 6 3 4 5 9 8 8 8 9 9
11 11 13 11 9 9 9 9 9 9 8 8 8 8 8 8 8 8 8 8 8 7 7 7 7 7 6 6 6 6 5 5 6 4 3 3 5 8 8 8 8 8 8
10 10 13 10 9 8 9 9 8 8 8 8 8 8 8 8 8 8 8 7 7 6 6 6 6 5 5 6 6 5 5 5 4 3 3 3 5 8 7 7 7 8 8
10 10 12 11 9 8 8 8 8 8 8 8 7 7 8 8 8 7 7 6 6 6 5 5 5 5 4 4 4 4 4 5 4 3 3 4 7 6 6 7 7 7 8
10 9 9 11 10 9 8 8 8 8 8 8 8 7 7 7 7 7 6 6 5 5 5 5 5 5 4 4 3 3 4 5 4 3 3 4 7 5 6 6 7 7 7
9 9 8 8 9 9 9 9 8 8 8 8 8 7 7 7 7 6 6 5 5 4 5 5 5 5 5 4 3 2 4 7 4 4 3 5 7 4 5 6 7 7 7
9 8 8 8 7 7 8 9 9 9 8 8 8 7 6 4 5 5 6 5 4 4 4 5 5 4 4 5 4 4 6 3 2 1 2 7 6 4 5 6 6 6 7
10 9 8 8 8 7 6 6 5 6 6 5 4 5 3 3 2 3 7 5 4 5 5 5 6 6 5 4 5 6 3 2 2 2 4 7 5 4 4 5 6 6 6
10 9 8 7 7 6 5 5 3 3 4 4 5 4 3 3 3 3 3 5 4 5 3 5 5 3 2 1 1 2 1 1 1 1 4 7 5 4 5 5 5 5 6
9 9 8 8 7 6 4 4 4 3 3 3 4 3 3 2 2 2 1 2 2 2 2 2 1 2 1 1 1 1 2 1 1 1 4 8 5 4 5 5 5 5 5
9 9 8 8 7 6 5 4 3 3 3 4 3 3 2 2 2 2 2 1 1 1 1 1 1 2 1 1 1 1 2 2 2 2 4 9 6 4 4 4 5 5 6
8 9 8 8 8 7 6 4 4 4 3 3 3 3 3 2 2 2 3 1 1 1 0 1 1 1 1 0 0 1 2 2 3 3 2 7 8 6 5 4 5 5 5
8 8 8 8 8 7 7 6 4 4 4 3 3 4 4 3 3 2 2 2 1 1 1 1 2 2 1 1 1 1 1 1 2 2 2 2 5 8 7 5 5 5 5
8 8 8 7 8 8 6 5 4 3 4 3 3 4 4 4 3 3 2 2 1 1 1 1 1 1 1 1 1 1 1 1 2 2 2 3 2 3 7 7 5 5 5
8 9 9 8 8 8 7 5 4 4 3 3 3 3 4 4 4 3 2 1 2 1 1 1 0 1 1 1 2 2 2 2 2 2 2 2 2 2 2 7 8 7 6
8 8 8 8 8 7 6 5 4 4 4 3 3 3 4 4 4 3 3 2 3 2 2 1 1 1 1 2 2 1 2 2 2 2 3 2 2 3 3 2 5 7 8
8 8 8 8 8 6 5 5 5 5 4 4 4 4 4 4 4 3 2 3 3 2 2 3 3 3 3 2 3 2 2 3 2 2 2 2 2 3 3 3 3 2 4
8 8 8 8 8 8 6 4 4 3 4 3 3 4 4 4 4 4 3 3 3 3 3 3 3 3 2 2 3 3 3 3 4 3 3 3 3 3 3 4 4 3 4
8 8 7 7 7 7 6 5 4 4 4 4 4 4 4 4 4 3 3 3 3 4 3 3 4 5 3 2 2 3 2 1 1 3 3 3 3 3 3 3 4 3 4
8 8 7 7 7 7 7 6 6 5 5 4 3 3 4 4 3 3 3 3 3 3 2 3 3 4 4 3 2 3 3 3 3 1 3 3 3 3 3 3 3 4 4
8 7 7 7 7 7 7 7 6 5 4 3 3 4 3 3 3 3 3 3 3 3 2 3 2 4 3 4 3 3 3 3 4 3 2 2 2 3 3 4 3 3 4
8 7 7 7 7 7 8 7 6 5 4 4 4 4 3 3 3 3 3 3 3 3 3 3 3 4 4 4 4 3 3 3 3 3 3 3 3 2 2 2 4 3 3
Wind_Direction
142 132 134 142 139 139 139 138 136 136 134 134 133 131 131 131 131 131 134 132 132 130 130 128 129 130 127 125 123 122 121 120 123 130 135 139 142 144 143 144 155 138 126
136 133 137 142 142 141 139 138 134 135 134 132 133 132 131 132 131 129 129 130 127 122 123 129 132 133 131 130 129 128 127 126 131 137 148 149 146 146 148 149 146 123 137
136 135 144 142 144 142 140 138 136 135 134 134 133 134 130 129 130 130 128 126 124 125 125 125 135 136 133 133 134 133 132 135 142 156 180 165 145 149 150 150 140 134 137
137 139 142 139 145 143 142 139 138 139 138 138 138 137 133 130 129 127 126 126 126 127 125 125 130 135 134 133 134 135 135 141 160 193 193 149 145 144 156 155 151 146 144
140 139 133 144 144 144 143 142 138 138 139 140 140 138 133 130 127 127 127 128 128 127 127 127 129 132 135 137 138 138 142 155 181 209 162 142 135 139 154 156 154 151 149
143 140 135 147 145 144 144 142 141 136 137 138 137 135 130 127 126 118 122 124 124 124 125 125 129 134 137 141 143 147 154 175 208 179 144 149 137 140 156 159 155 152 148
142 138 135 146 147 145 143 141 140 138 136 131 129 131 129 121 120 116 116 119 121 123 125 125 124 132 140 144 148 154 166 199 218 156 143 141 115 135 157 159 156 153 152
142 141 137 149 151 149 144 140 137 134 131 128 124 120 121 123 122 118 117 119 122 123 125 128 124 118 128 137 149 162 180 221 202 166 156 127 107 134 157 160 158 156 155
146 146 151 156 158 156 149 140 138 137 134 130 125 122 122 124 126 125 124 123 125 123 122 123 118 115 117 112 126 169 195 226 228 175 167 124 115 139 161 165 163 161 156
152 153 155 157 156 162 156 147 141 141 142 140 136 132 134 140 140 138 138 122 120 120 122 120 115 115 119 125 127 174 212 224 219 184 164 119 124 150 168 168 171 169 159
160 161 160 159 161 163 154 149 156 152 151 157 148 147 167 156 146 149 110 119 129 134 138 133 129 137 159 159 163 201 224 229 189 179 125 106 124 146 162 169 173 168 156
171 170 165 165 163 165 157 155 164 161 153 167 146 157 161 130 133 126 128 137 136 146 153 148 150 172 201 166 165 201 217 224 202 169 116 115 134 144 153 169 178 170 168
172 170 168 167 165 166 163 161 161 157 152 159 148 158 155 164 158 155 149 153 152 161 154 152 181 176 159 134 188 184 214 231 210 166 122 128 145 147 145 155 163 173 176
175 175 170 169 167 172 164 160 166 164 159 157 149 169 161 166 162 135 145 132 148 132 130 158 144 126 145 168 199 189 189 216 184 159 123 135 148 153 152 156 160 172 175
177 176 173 172 169 169 167 178 167 172 168 155 153 158 170 168 165 149 135 126 116 117 155 159 144 134 177 179 203 173 193 193 198 198 136 141 153 160 165 164 167 178 183
180 177 170 173 172 173 172 177 172 178 171 170 158 161 180 172 151 159 149 136 123 117 98 181 152 172 184 132 158 152 215 201 193 203 181 152 161 168 176 184 188 191 193
178 175 172 173 173 179 180 183 181 183 176 175 160 167 180 178 158 167 155 163 145 144 165 201 190 189 187 188 183 212 219 224 188 194 210 200 170 169 174 184 192 199 205
177 173 175 176 172 176 183 187 190 183 176 175 172 165 173 176 177 189 180 167 152 183 202 203 223 195 175 208 204 238 221 195 192 191 206 208 220 189 171 172 185 195 205
174 173 174 177 175 177 180 185 185 176 182 181 178 171 171 181 190 205 188 152 196 197 226 248 181 252 208 232 214 204 225 216 197 193 204 212 218 234 216 164 179 192 203
170 172 176 176 177 178 180 183 189 179 182 187 183 172 178 186 195 214 192 184 213 206 206 218 227 231 254 254 263 239 230 222 217 206 218 200 206 230 236 220 193 188 194
168 172 177 179 174 181 185 190 188 184 186 185 182 176 189 196 194 215 220 185 220 215 225 223 231 216 229 247 248 230 209 202 208 212 217 226 208 217 226 229 236 230 192
172 175 179 181 180 188 187 195 195 185 187 183 179 178 190 195 206 205 222 217 208 219 219 232 240 253 230 221 260 257 227 191 190 204 204 210 229 232 220 220 229 226 249
177 179 181 183 184 188 182 184 177 174 183 182 187 185 190 193 197 222 214 230 226 232 214 226 236 246 244 215 241 273 272 252 227 171 199 209 214 230 232 226 224 216 230
180 175 176 181 184 183 184 189 188 189 189 185 189 177 184 193 203 211 215 218 235 237 227 233 233 247 250 240 209 237 274 314 284 229 187 189 205 222 236 246 235 219 223
178 175 172 175 181 184 189 188 196 197 187 179 179 168 190 184 203 210 210 215 224 233 232 250 250 254 246 254 247 229 230 233 249 266 261 239 218 218 223 234 242 238 231
175 176 173 174 179 184 188 187 195 192 188 183 185 178 190 183 194 202 213 221 222 228 223 233 242 237 249 254 261 257 246 242 236 247 254 256 255 242 238 242 240 232 233